GW1306 Weather Reports


Display with metric or nautical units.
time (UTC)temp
F
wind
direction
speed
MPH
gust
MPH
rain 1hr
in
rain 24hr
in
rain mn
in
humidity
%
barometer
mb
20260507070024 55 88 1.0 1.0 0.00 0.04 0.04 94 1013.2
20260507065520 55 68 0.0 0.0 0.00 0.04 0.04 94 1013.5
20260507065018 55 52 1.0 1.0 0.00 0.04 0.04 94 1013.5
20260507064515 55 208 1.0 1.0 0.00 0.04 0.04 94 1013.2
20260507064014 55 72 0.0 0.0 0.07 0.04 0.04 94 1013.1
20260507063510 55 66 0.0 0.0 0.07 0.04 0.04 95 1013.1
20260507063008 55 59 1.0 1.0 0.00 0.03 0.03 95 1012.9
20260507062504 55 70 0.0 1.0 0.00 0.03 0.03 96 1013.0
20260507062002 55 76 0.0 0.0 0.00 0.03 0.03 95 1013.2
20260507061459 55 72 1.0 1.0 0.05 0.03 0.03 95 1013.3
20260507060957 55 156 0.0 0.0 0.05 0.03 0.03 95 1013.4
20260507060454 55 79 0.0 0.0 0.00 0.02 0.02 95 1013.1
20260507055951 55 72 0.0 0.0 0.00 0.02 0.02 95 1013.5
20260507055446 55 83 0.0 0.0 0.00 0.02 0.02 94 1013.2
20260507054943 56 65 0.0 1.0 0.00 0.02 0.02 94 1013.4
20260507054439 57 72 0.0 1.0 0.00 0.02 0.02 95 1013.5
20260507053936 57 73 0.0 1.0 0.07 0.02 0.02 94 1013.4
20260507053434 58 60 0.0 0.0 0.12 0.02 0.02 93 1013.5
20260507052932 59 86 0.0 1.0 0.05 0.01 0.01 91 1013.2
20260507052429 59 73 0.0 0.0 0.00 0.00 0.00 88 1013.5
20260507051926 60 65 1.0 1.0 0.00 0.00 0.00 85 1013.4
20260507051424 61 102 0.0 0.0 0.00 0.00 0.00 82 1013.5
20260507050921 61 199 1.0 2.0 0.00 0.00 0.00 80 1013.9
20260507050418 61 171 0.0 1.0 0.00 0.00 0.00 80 1013.6
20260507045914 62 198 1.0 1.0 0.00 0.00 0.00 80 1013.3
20260507045411 62 69 0.0 1.0 0.00 0.00 0.00 79 1012.9
20260507044908 62 108 0.0 0.0 0.00 0.00 0.00 78 1013.3
20260507044405 63 176 0.0 1.0 0.00 0.00 0.00 78 1013.1
20260507043901 63 78 0.0 1.0 0.00 0.00 0.00 77 1013.0
20260507043357 63 74 1.0 1.0 0.00 0.00 0.00 79 1013.0
20260507042854 63 251 1.0 2.0 0.00 0.00 0.00 83 1012.9
20260507042350 63 109 0.0 0.0 0.00 0.00 0.00 82 1012.8
20260507041846 63 77 0.0 0.0 0.00 0.00 0.00 82 1012.7
20260507041343 64 105 0.0 1.0 0.00 0.00 0.00 84 1012.6
20260507040841 64 106 0.0 0.0 0.00 0.00 0.00 84 1012.3
20260507040336 64 224 0.0 0.0 0.00 0.00 0.00 83 1012.1
20260507035833 64 88 0.0 0.0 0.00 0.12 0.12 82 1012.1
20260507035328 64 106 0.0 0.0 0.00 0.12 0.12 81 1012.3
20260507034826 64 109 0.0 0.0 0.00 0.12 0.12 81 1012.7
20260507034323 64 81 1.0 1.0 0.00 0.12 0.12 81 1012.5
20260507033821 64 108 0.0 0.0 0.00 0.12 0.12 81 1012.6
20260507033318 64 113 0.0 0.0 0.00 0.12 0.12 79 1012.6
20260507032815 65 121 0.0 0.0 0.00 0.12 0.12 79 1012.5
20260507032311 65 220 1.0 1.0 0.00 0.12 0.12 77 1012.5
20260507031808 66 228 2.0 2.0 0.00 0.12 0.12 75 1012.5
20260507031305 66 94 0.0 0.0 0.00 0.12 0.12 76 1012.4
20260507030801 66 154 0.0 1.0 0.00 0.12 0.12 76 1012.4
20260507030259 66 72 0.0 0.0 0.00 0.12 0.12 76 1012.2
20260507025756 67 225 1.0 2.0 0.00 0.12 0.12 81 1012.4
20260507025253 67 124 0.0 1.0 0.00 0.12 0.12 83 1012.3
20260507024751 67 113 0.0 0.0 0.00 0.12 0.12 84 1012.1
20260507024248 67 122 0.0 0.0 0.00 0.12 0.12 84 1011.9
20260507023743 67 135 0.0 0.0 0.00 0.12 0.12 85 1011.6
20260507023240 67 130 0.0 0.0 0.00 0.12 0.12 85 1011.8
20260507022738 67 122 0.0 0.0 0.00 0.12 0.12 85 1011.8
20260507022233 67 99 0.0 0.0 0.00 0.12 0.12 86 1011.9
20260507021730 67 143 0.0 0.0 0.00 0.12 0.12 86 1011.8
20260507021225 67 143 0.0 0.0 0.00 0.12 0.12 86 1011.8
20260507020724 67 144 0.0 1.0 0.00 0.12 0.12 86 1011.6
20260507020220 67 139 0.0 0.0 0.00 0.12 0.12 85 1011.4
20260507015718 68 135 0.0 0.0 0.00 0.12 0.12 85 1011.5
20260507015215 68 124 0.0 0.0 0.00 0.12 0.12 84 1011.5
20260507014712 68 111 0.0 0.0 0.00 0.12 0.12 84 1011.8
20260507014208 68 73 0.0 0.0 0.00 0.12 0.12 84 1011.7
20260507013705 68 81 0.0 0.0 0.00 0.12 0.12 84 1011.9
20260507013202 68 82 0.0 0.0 0.00 0.12 0.12 84 1012.2
20260507012700 68 82 0.0 0.0 0.00 0.12 0.12 84 1011.9
20260507012155 68 83 0.0 0.0 0.00 0.12 0.12 84 1012.0
20260507011653 68 94 0.0 0.0 0.00 0.12 0.12 84 1012.1
20260507011149 68 120 0.0 0.0 0.00 0.12 0.12 84 1012.0
20260507010644 68 118 0.0 0.0 0.00 0.12 0.12 84 1012.0
20260507010140 68 108 0.0 0.0 0.00 0.12 0.12 84 1012.0
20260507005638 68 116 0.0 0.0 0.00 0.12 0.12 84 1011.8
20260507005133 68 82 0.0 1.0 0.00 0.12 0.12 83 1011.8
20260507004630 68 136 0.0 0.0 0.00 0.12 0.12 83 1011.7
20260507004128 68 93 0.0 0.0 0.00 0.12 0.12 83 1011.4
20260507003624 68 136 0.0 0.0 0.00 0.12 0.12 83 1011.5
20260507003119 68 119 0.0 0.0 0.00 0.12 0.12 83 1011.5
20260507002616 68 80 0.0 1.0 0.00 0.12 0.12 83 1011.3
20260507002112 68 58 1.0 1.0 0.00 0.12 0.12 82 1011.5
20260507001609 68 88 0.0 0.0 0.00 0.12 0.12 82 1011.4
20260507001106 69 72 0.0 0.0 0.00 0.12 0.12 82 1011.6
20260507000602 69 65 0.0 1.0 0.00 0.12 0.12 81 1011.5
20260507000058 69 88 0.0 0.0 0.00 0.12 0.12 81 1011.3
20260506235555 69 123 0.0 1.0 0.00 0.12 0.12 81 1011.6
20260506235050 69 106 0.0 0.0 0.00 0.12 0.12 81 1011.6
20260506234548 69 95 0.0 1.0 0.00 0.12 0.12 81 1011.2
20260506234045 69 65 1.0 1.0 0.00 0.12 0.12 81 1011.2
20260506233542 69 78 0.0 0.0 0.00 0.12 0.12 81 1011.4
20260506233039 69 74 0.0 1.0 0.00 0.12 0.12 80 1011.1
20260506232535 69 93 0.0 0.0 0.00 0.12 0.12 80 1010.9
20260506232030 69 80 0.0 0.0 0.00 0.12 0.12 80 1011.0
20260506231528 69 134 0.0 0.0 0.00 0.12 0.12 80 1011.1
20260506231026 69 211 1.0 2.0 0.00 0.12 0.12 80 1011.1
20260506230522 69 64 1.0 1.0 0.00 0.12 0.12 80 1010.9
20260506230020 69 98 1.0 1.0 0.00 0.12 0.12 79 1010.6
20260506225516 70 135 0.0 1.0 0.00 0.12 0.12 79 1010.9
20260506225013 70 228 0.0 0.0 0.00 0.12 0.12 79 1010.9
20260506224510 70 223 1.0 1.0 0.00 0.12 0.12 78 1010.9
20260506224006 70 219 1.0 1.0 0.00 0.12 0.12 79 1010.8
20260506223502 70 271 0.0 1.0 0.00 0.12 0.12 78 1010.9
20260506222959 70 101 0.0 0.0 0.00 0.12 0.12 79 1010.9
20260506222456 70 44 1.0 2.0 0.00 0.12 0.12 78 1010.9
20260506221952 70 333 1.0 1.0 0.00 0.12 0.12 78 1011.0
20260506221449 70 62 1.0 2.0 0.00 0.12 0.12 78 1011.0
20260506220947 70 56 2.0 2.0 0.00 0.12 0.12 77 1011.1
20260506220442 70 1 2.0 2.0 0.00 0.12 0.12 77 1010.9
20260506215939 70 290 1.0 2.0 0.00 0.12 0.12 77 1010.9
20260506215435 71 70 1.0 1.0 0.00 0.12 0.12 77 1011.1
20260506214931 71 234 1.0 1.0 0.00 0.12 0.12 78 1011.2
20260506214428 70 59 1.0 2.0 0.00 0.12 0.12 77 1010.9
20260506213926 71 60 2.0 2.0 0.00 0.12 0.12 77 1010.8
20260506213423 71 64 1.0 1.0 0.00 0.12 0.12 77 1010.7
20260506212921 71 193 1.0 2.0 0.00 0.12 0.12 77 1010.6
20260506212416 71 172 0.0 0.0 0.00 0.12 0.12 77 1010.5
20260506211911 71 51 0.0 0.0 0.00 0.12 0.12 77 1010.7
20260506211408 71 81 0.0 0.0 0.00 0.12 0.12 77 1010.8
20260506210905 71 200 1.0 2.0 0.00 0.12 0.12 78 1010.7
20260506210401 71 77 0.0 0.0 0.00 0.12 0.12 77 1010.6
20260506205859 71 37 1.0 1.0 0.00 0.12 0.12 76 1010.5
20260506205355 71 220 1.0 1.0 0.00 0.12 0.12 77 1010.5
20260506204851 71 50 2.0 2.0 0.00 0.12 0.12 76 1010.5
20260506204349 71 224 1.0 1.0 0.00 0.12 0.12 75 1010.5
20260506203846 72 68 1.0 2.0 0.00 0.12 0.12 75 1010.4
20260506203343 72 128 2.0 3.0 0.00 0.12 0.12 75 1010.5
20260506202840 71 58 1.0 1.0 0.00 0.12 0.12 75 1010.5
20260506202337 71 33 2.0 2.0 0.00 0.12 0.12 75 1010.2
20260506201834 72 49 3.0 3.0 0.00 0.12 0.12 75 1010.4
20260506201331 72 277 3.0 3.0 0.00 0.12 0.12 74 1010.3
20260506200828 72 227 2.0 2.0 0.00 0.12 0.12 75 1010.4
20260506200324 72 246 2.0 2.0 0.00 0.12 0.12 75 1010.5
20260506195820 72 277 1.0 2.0 0.00 0.12 0.12 74 1010.3
20260506195318 72 280 1.0 2.0 0.00 0.12 0.12 73 1010.3
20260506194815 71 80 1.0 1.0 0.00 0.12 0.12 75 1010.4
20260506194311 71 182 1.0 1.0 0.00 0.12 0.12 75 1010.3
20260506193809 72 57 1.0 3.0 0.00 0.12 0.12 74 1010.5
20260506193305 72 198 1.0 2.0 0.00 0.12 0.12 74 1010.5
20260506192801 71 235 1.0 1.0 0.00 0.12 0.12 75 1010.5
20260506192258 71 357 1.0 2.0 0.00 0.12 0.12 75 1010.6
20260506191756 71 196 1.0 1.0 0.00 0.12 0.12 76 1010.6
20260506191252 70 289 1.0 2.0 0.00 0.12 0.12 76 1010.6
20260506190749 70 296 2.0 2.0 0.00 0.12 0.12 78 1010.6
20260506190245 70 65 1.0 1.0 0.00 0.12 0.12 77 1010.7
20260506185742 69 268 3.0 3.0 0.00 0.12 0.12 77 1010.9
20260506185239 69 176 1.0 1.0 0.00 0.12 0.12 78 1011.0
20260506184731 69 318 2.0 2.0 0.00 0.12 0.12 79 1011.2
20260506184228 69 49 1.0 1.0 0.00 0.12 0.12 79 1011.0
20260506183725 69 77 2.0 3.0 0.00 0.12 0.12 79 1010.8
20260506183221 69 83 4.0 6.0 0.00 0.12 0.12 79 1011.3
20260506182718 69 285 2.0 3.0 0.00 0.12 0.12 80 1011.1
20260506182215 68 218 2.0 2.0 0.00 0.12 0.12 80 1011.2
20260506181713 68 78 1.0 1.0 0.00 0.12 0.12 81 1011.3
20260506181211 68 301 1.0 1.0 0.00 0.12 0.12 80 1011.4
20260506180707 68 3 2.0 2.0 0.00 0.12 0.12 80 1011.5
20260506180202 68 254 2.0 2.0 0.00 0.12 0.12 81 1011.4
20260506175659 68 56 1.0 2.0 0.00 0.12 0.12 80 1011.6
20260506175157 68 132 1.0 1.0 0.00 0.12 0.12 84 1011.5
20260506174655 67 241 2.0 2.0 0.00 0.12 0.12 82 1011.5
20260506174151 67 290 4.0 6.0 0.00 0.12 0.12 83 1011.5
20260506173649 67 254 2.0 3.0 0.00 0.12 0.12 84 1011.4
20260506173145 67 249 1.0 1.0 0.00 0.12 0.12 84 1011.5
20260506172642 66 48 2.0 2.0 0.00 0.12 0.12 85 1011.6
20260506172139 66 271 2.0 3.0 0.00 0.12 0.12 86 1011.6
20260506171631 66 64 3.0 3.0 0.00 0.12 0.12 87 1011.5
20260506171128 66 318 3.0 3.0 0.00 0.12 0.12 86 1011.5
20260506170625 66 171 0.0 1.0 0.00 0.12 0.12 88 1011.6
20260506170117 65 78 1.0 2.0 0.00 0.12 0.12 89 1011.7
20260506165615 65 288 1.0 2.0 0.00 0.12 0.12 89 1011.8
20260506165111 64 45 4.0 7.0 0.00 0.12 0.12 89 1012.1
20260506164609 64 308 1.0 1.0 0.00 0.12 0.12 90 1011.9
20260506164106 64 22 2.0 3.0 0.00 0.12 0.12 91 1012.0
20260506163602 64 50 2.0 2.0 0.00 0.12 0.12 91 1012.0
20260506163057 64 35 4.0 5.0 0.00 0.12 0.12 92 1011.7
20260506162554 64 107 1.0 2.0 0.00 0.12 0.12 93 1011.9
20260506162051 64 35 1.0 2.0 0.00 0.12 0.12 93 1011.9
20260506161549 64 68 2.0 2.0 0.00 0.12 0.12 93 1012.0
20260506161045 63 319 1.0 2.0 0.00 0.12 0.12 94 1012.0
20260506160543 62 350 3.0 3.0 0.00 0.12 0.12 94 1012.3
20260506160039 62 90 1.0 1.0 0.00 0.12 0.12 94 1012.2
20260506155539 62 66 1.0 1.0 0.00 0.12 0.12 94 1012.4
20260506153715 62 53 1.0 1.0 0.00 0.12 0.12 95 1011.9
20260506153213 62 63 1.0 2.0 0.00 0.12 0.12 95 1012.1
20260506152709 61 74 1.0 2.0 0.00 0.12 0.12 95 1012.6
20260506152207 61 209 2.0 3.0 0.07 0.12 0.12 95 1012.5
20260506151706 61 70 1.0 2.0 0.07 0.12 0.12 95 1012.7
20260506151202 61 65 0.0 2.0 0.05 0.11 0.11 95 1012.9
20260506150658 61 54 2.0 3.0 0.19 0.11 0.11 95 1013.0
20260506150156 61 71 1.0 2.0 0.19 0.09 0.09 94 1012.9
20260506145652 61 60 1.0 1.0 0.24 0.08 0.08 94 1012.9
20260506145149 61 63 1.0 1.0 0.24 0.06 0.06 93 1012.9
20260506144647 62 272 1.0 1.0 0.12 0.04 0.04 92 1013.1
20260506144143 62 76 0.0 0.0 0.00 0.02 0.02 91 1012.9
20260506143641 62 339 2.0 2.0 0.05 0.02 0.02 91 1012.8
20260506143139 62 60 1.0 1.0 0.05 0.02 0.02 91 1012.9
20260506142637 62 72 0.0 1.0 0.00 0.01 0.01 91 1013.0
20260506142135 62 64 1.0 2.0 0.07 0.01 0.01 90 1012.9
20260506141632 63 74 0.0 1.0 0.07 0.01 0.01 89 1012.9
20260506141130 63 63 0.0 1.0 0.00 0.00 0.00 87 1013.0
20260506140628 63 27 2.0 2.0 0.00 0.00 0.00 86 1012.9
20260506140125 64 168 0.0 1.0 0.00 0.00 0.00 84 1013.2
20260506135622 64 149 0.0 1.0 0.00 0.00 0.00 84 1013.2
20260506135118 64 29 1.0 2.0 0.00 0.00 0.00 82 1013.4
20260506134614 65 61 0.0 1.0 0.00 0.00 0.00 81 1013.4
20260506134110 65 19 2.0 3.0 0.00 0.00 0.00 79 1013.4
20260506133608 65 224 0.0 1.0 0.00 0.00 0.00 79 1013.3
20260506133105 65 170 0.0 1.0 0.00 0.00 0.00 79 1013.4
20260506132602 65 85 1.0 1.0 0.00 0.00 0.00 78 1013.0
20260506132059 66 64 1.0 1.0 0.00 0.00 0.00 78 1013.0
20260506131556 66 242 2.0 2.0 0.00 0.00 0.00 77 1012.8
20260506131052 66 116 1.0 2.0 0.00 0.00 0.00 77 1012.8
20260506130549 66 55 2.0 2.0 0.00 0.00 0.00 77 1012.7
20260506130047 66 266 3.0 3.0 0.00 0.00 0.00 76 1012.7
20260506125545 66 350 2.0 3.0 0.00 0.00 0.00 76 1012.7
20260506125042 66 69 0.0 0.0 0.00 0.00 0.00 77 1012.6
20260506124540 66 64 0.0 1.0 0.00 0.00 0.00 77 1012.8
20260506124038 66 57 0.0 0.0 0.00 0.00 0.00 77 1012.9
20260506123535 66 49 1.0 1.0 0.00 0.00 0.00 77 1012.8
20260506123033 66 65 2.0 2.0 0.00 0.00 0.00 77 1013.1
20260506122529 66 65 0.0 1.0 0.00 0.00 0.00 77 1013.1
20260506122028 66 155 0.0 1.0 0.00 0.00 0.00 78 1013.2
20260506121525 66 285 3.0 3.0 0.00 0.00 0.00 77 1013.3
20260506121021 66 7 1.0 1.0 0.00 0.00 0.00 76 1013.1
20260506120520 66 253 2.0 5.0 0.00 0.00 0.00 75 1013.1
20260506120017 66 277 2.0 3.0 0.00 0.00 0.00 75 1012.9
20260506115514 66 53 1.0 1.0 0.00 0.00 0.00 75 1013.1
20260506115013 66 70 1.0 1.0 0.00 0.00 0.00 75 1013.0
20260506114509 66 63 2.0 3.0 0.00 0.00 0.00 75 1012.9
20260506114008 66 319 2.0 2.0 0.00 0.00 0.00 75 1012.7
20260506113505 66 80 1.0 2.0 0.00 0.00 0.00 75 1012.7
20260506113002 66 77 1.0 1.0 0.00 0.00 0.00 75 1012.5
20260506112459 66 66 0.0 1.0 0.00 0.00 0.00 75 1012.7
20260506111956 66 37 0.0 0.0 0.00 0.00 0.00 76 1012.7
20260506111454 66 43 0.0 1.0 0.00 0.00 0.00 76 1012.6
20260506110951 65 3 3.0 6.0 0.00 0.00 0.00 76 1012.4
20260506110449 65 44 1.0 2.0 0.00 0.00 0.00 77 1012.4
20260506105945 65 270 1.0 2.0 0.00 0.00 0.00 76 1012.2
20260506105442 65 64 2.0 2.0 0.00 0.00 0.00 76 1012.5
20260506104939 65 42 2.0 2.0 0.00 0.00 0.00 76 1012.2
20260506104437 65 33 1.0 2.0 0.00 0.00 0.00 76 1012.4
20260506103935 65 58 0.0 1.0 0.00 0.00 0.00 76 1012.3
20260506103432 65 351 1.0 2.0 0.00 0.00 0.00 76 1012.3
20260506102929 65 27 4.0 6.0 0.00 0.00 0.00 76 1012.2
20260506102427 65 31 3.0 3.0 0.00 0.00 0.00 76 1012.4
20260506101924 65 114 1.0 2.0 0.00 0.00 0.00 76 1012.3
20260506101420 65 88 3.0 5.0 0.00 0.00 0.00 76 1012.1
20260506100918 65 6 3.0 3.0 0.00 0.00 0.00 76 1012.2
20260506100416 65 66 1.0 1.0 0.00 0.00 0.00 76 1012.2
20260506095914 65 53 1.0 1.0 0.00 0.00 0.00 76 1012.4
20260506095412 65 80 0.0 0.0 0.00 0.00 0.00 76 1012.3
20260506094908 66 57 1.0 1.0 0.00 0.00 0.00 76 1012.4
20260506094407 66 76 0.0 1.0 0.00 0.00 0.00 76 1012.4
20260506093904 66 11 2.0 3.0 0.00 0.00 0.00 75 1012.3
20260506093402 66 170 1.0 2.0 0.00 0.00 0.00 75 1012.3
20260506092859 66 50 1.0 1.0 0.00 0.00 0.00 75 1012.2
20260506092357 66 65 1.0 1.0 0.00 0.00 0.00 75 1012.4
20260506091853 66 34 1.0 1.0 0.00 0.00 0.00 75 1012.4
20260506091352 66 22 3.0 3.0 0.00 0.00 0.00 75 1012.4
20260506090848 66 70 0.0 0.0 0.00 0.00 0.00 74 1012.3
20260506090346 66 85 0.0 1.0 0.00 0.00 0.00 74 1012.5
20260506085842 66 34 3.0 5.0 0.00 0.00 0.00 74 1012.7
20260506085339 67 66 2.0 2.0 0.00 0.00 0.00 73 1012.5
20260506084835 67 52 4.0 6.0 0.00 0.00 0.00 73 1012.4
20260506084332 67 80 2.0 3.0 0.00 0.00 0.00 73 1012.6
20260506083829 67 68 2.0 3.0 0.00 0.00 0.00 72 1012.5
20260506083326 67 60 2.0 2.0 0.00 0.00 0.00 72 1012.4
20260506082823 67 67 0.0 1.0 0.00 0.00 0.00 72 1012.3
20260506082320 67 49 1.0 2.0 0.00 0.00 0.00 71 1012.4
20260506081816 68 27 2.0 2.0 0.00 0.00 0.00 71 1012.4
20260506081314 68 30 2.0 2.0 0.00 0.00 0.00 71 1012.3
20260506080812 68 73 3.0 3.0 0.00 0.00 0.00 71 1012.4
20260506080308 68 150 0.0 1.0 0.00 0.00 0.00 71 1012.4
20260506073252 69 97 1.0 2.0 0.00 0.00 0.00 68 1012.6
20260506072749 69 60 1.0 1.0 0.00 0.00 0.00 68 1012.6
20260506072246 69 90 0.0 1.0 0.00 0.00 0.00 67 1012.8
20260506071744 69 84 2.0 3.0 0.00 0.00 0.00 66 1012.8
20260506071242 70 49 3.0 3.0 0.00 0.00 0.00 66 1012.6
20260506070738 70 311 1.0 1.0 0.00 0.00 0.00 65 1012.9